Stations météo

réclame
Mon MeteoGroup
San Sebastian/Igueldo, Espagne (8027): Température de l'air & dewpoint: 16.10.2017 14:00:00 - 22.10.2017 14:00:00 (CEST)San Sebastian/Igueldo, Espagne (8027): Vitesse du vent: 16.10.2017 14:00:00 - 22.10.2017 14:00:00 (CEST)San Sebastian/Igueldo, Espagne (8027): Direction du vent: 16.10.2017 14:00:00 - 22.10.2017 14:00:00 (CEST)San Sebastian/Igueldo, Espagne (8027): reduced air pressure: 16.10.2017 14:00:00 - 22.10.2017 14:00:00 (CEST)San Sebastian/Igueldo, Espagne (8027): visibility: 16.10.2017 14:00:00 - 22.10.2017 14:00:00 (CEST)
Date & Time tt [°C] td [°C] ff [km/h] ff [knt] dd ppp [hPa] vv [km]
22.10.2017 14:00:00 - - - - - - -
22.10.2017 13:00:00 - - - - - - -
22.10.2017 12:00:00 - - - - - - -
22.10.2017 11:00:00 12,7 10,8 15 8 WNW 1028,9 8
22.10.2017 10:00:00 - - - - - - -
22.10.2017 09:00:00 - - - - - - -
22.10.2017 08:00:00 11,2 9,9 11 6 WNW 1028,3 5
22.10.2017 07:00:00 - - - - - - -
22.10.2017 06:00:00 - - - - - - -
22.10.2017 05:00:00 11,8 9,4 24 13 NW 1027,7 5
22.10.2017 04:00:00 - - - - - - -
22.10.2017 03:00:00 - - - - - - -
22.10.2017 02:00:00 12,4 10,1 18 10 NW 1027,9 30
22.10.2017 01:00:00 - - - - - - -
22.10.2017 00:00:00 - - - - - - -
21.10.2017 23:00:00 13,0 9,4 15 8 NW 1027,3 20
21.10.2017 22:00:00 - - - - - - -
21.10.2017 21:00:00 - - - - - - -
21.10.2017 20:00:00 14,8 8,1 22 12 NNW 1026,4 30
21.10.2017 19:00:00 - - - - - - -
21.10.2017 18:00:00 - - - - - - -
21.10.2017 17:00:00 15,0 10,8 26 14 NNW 1025,2 20
21.10.2017 16:00:00 - - - - - - -
21.10.2017 15:00:00 - - - - - - -
21.10.2017 14:00:00 15,9 11,1 15 8 WNW 1024,3 20
21.10.2017 13:00:00 - - - - - - -
21.10.2017 12:00:00 - - - - - - -
21.10.2017 11:00:00 13,6 11,3 11 6 W 1023,9 25
21.10.2017 10:00:00 - - - - - - -
21.10.2017 09:00:00 - - - - - - -
21.10.2017 08:00:00 14,8 13,3 29 16 NW 1021,3 20
21.10.2017 07:00:00 - - - - - - -
21.10.2017 06:00:00 - - - - - - -
21.10.2017 05:00:00 17,6 16,3 34 18 N 1018,4 20
21.10.2017 04:00:00 - - - - - - -
21.10.2017 03:00:00 - - - - - - -
21.10.2017 02:00:00 20,6 11,8 35 19 SSW 1015,4 50
21.10.2017 01:00:00 - - - - - - -
21.10.2017 00:00:00 - - - - - - -
20.10.2017 23:00:00 19,3 11,1 24 13 S 1016,1 50
20.10.2017 22:00:00 - - - - - - -
20.10.2017 21:00:00 - - - - - - -
20.10.2017 20:00:00 18,4 14,7 18 10 SSW 1016,2 50
20.10.2017 19:00:00 - - - - - - -
20.10.2017 18:00:00 - - - - - - -
20.10.2017 17:00:00 19,8 13,5 8 4 ENE 1016,6 60
20.10.2017 16:00:00 - - - - - - -
20.10.2017 15:00:00 - - - - - - -
20.10.2017 14:00:00 19,4 12,7 15 8 SSW 1016,7 40
20.10.2017 13:00:00 - - - - - - -
20.10.2017 12:00:00 - - - - - - -
20.10.2017 11:00:00 15,5 10,9 11 6 SSW 1017,4 40
20.10.2017 10:00:00 - - - - - - -
20.10.2017 09:00:00 - - - - - - -
20.10.2017 08:00:00 15,5 9,2 11 6 SSW 1015,8 40
20.10.2017 07:00:00 - - - - - - -
20.10.2017 06:00:00 - - - - - - -
20.10.2017 05:00:00 14,6 9,6 8 4 SW 1014,8 35
20.10.2017 04:00:00 - - - - - - -
20.10.2017 03:00:00 - - - - - - -
20.10.2017 02:00:00 15,3 5,8 5 3 SSW 1014,4 35
20.10.2017 01:00:00 - - - - - - -
20.10.2017 00:00:00 - - - - - - -
19.10.2017 23:00:00 14,5 9,3 15 8 SSW 1012,7 20
19.10.2017 22:00:00 - - - - - - -
19.10.2017 21:00:00 - - - - - - -
19.10.2017 20:00:00 14,9 12,6 8 4 SSW 1010,6 40
19.10.2017 19:00:00 - - - - - - -
19.10.2017 18:00:00 - - - - - - -
19.10.2017 17:00:00 16,8 11,7 8 4 ENE 1011,0 40
19.10.2017 16:00:00 - - - - - - -
19.10.2017 15:00:00 - - - - - - -
19.10.2017 14:00:00 15,8 10,6 8 4 NNE 1012,0 40
19.10.2017 13:00:00 - - - - - - -
19.10.2017 12:00:00 - - - - - - -
19.10.2017 11:00:00 13,8 12,0 9 5 SW 1011,6 40
19.10.2017 10:00:00 - - - - - - -
19.10.2017 09:00:00 - - - - - - -
19.10.2017 08:00:00 12,2 11,1 9 5 WSW 1011,2 12
19.10.2017 07:00:00 - - - - - - -
19.10.2017 06:00:00 - - - - - - -
19.10.2017 05:00:00 13,0 10,7 15 8 WNW 1010,8 15
19.10.2017 04:00:00 - - - - - - -
19.10.2017 03:00:00 - - - - - - -
19.10.2017 02:00:00 13,0 11,1 16 9 WNW 1010,5 12
19.10.2017 01:00:00 - - - - - - -
19.10.2017 00:00:00 - - - - - - -
18.10.2017 23:00:00 13,0 12,2 16 9 WNW 1010,5 9
18.10.2017 22:00:00 - - - - - - -
18.10.2017 21:00:00 - - - - - - -
18.10.2017 20:00:00 13,6 12,5 5 3 WSW 1009,9 15
18.10.2017 19:00:00 - - - - - - -
18.10.2017 18:00:00 - - - - - - -
18.10.2017 17:00:00 13,4 13,1 0 0 N 1009,6 4,0
18.10.2017 16:00:00 - - - - - - -
18.10.2017 15:00:00 - - - - - - -
18.10.2017 14:00:00 16,2 15,6 15 8 N 1009,3 0,5
18.10.2017 13:00:00 - - - - - - -
18.10.2017 12:00:00 - - - - - - -
18.10.2017 11:00:00 16,4 14,4 9 5 SSW 1010,6 10
18.10.2017 10:00:00 - - - - - - -
18.10.2017 09:00:00 - - - - - - -
18.10.2017 08:00:00 17,6 12,9 22 12 SSW 1010,9 30
18.10.2017 07:00:00 - - - - - - -
18.10.2017 06:00:00 - - - - - - -
18.10.2017 05:00:00 17,8 12,5 8 4 SSW 1012,8 40
18.10.2017 04:00:00 - - - - - - -
18.10.2017 03:00:00 - - - - - - -
18.10.2017 02:00:00 17,5 16,0 4 2 W 1013,5 5
18.10.2017 01:00:00 - - - - - - -
18.10.2017 00:00:00 - - - - - - -
17.10.2017 23:00:00 17,2 16,7 9 5 NNW 1014,7 1,0
17.10.2017 22:00:00 - - - - - - -
17.10.2017 21:00:00 - - - - - - -
17.10.2017 20:00:00 21,6 13,2 9 5 NNW 1014,2 10
17.10.2017 19:00:00 - - - - - - -
17.10.2017 18:00:00 - - - - - - -
17.10.2017 17:00:00 23,2 10,6 34 18 SSW 1013,3 30
17.10.2017 16:00:00 - - - - - - -
17.10.2017 15:00:00 - - - - - - -
17.10.2017 14:00:00 22,6 10,7 44 24 S 1015,0 45
17.10.2017 13:00:00 - - - - - - -
17.10.2017 12:00:00 - - - - - - -
17.10.2017 11:00:00 19,4 11,2 44 24 S 1016,9 50
17.10.2017 10:00:00 - - - - - - -
17.10.2017 09:00:00 - - - - - - -
17.10.2017 08:00:00 20,2 10,9 35 19 SSE 1017,2 50
17.10.2017 07:00:00 - - - - - - -
17.10.2017 06:00:00 - - - - - - -
17.10.2017 05:00:00 20,2 10,3 35 19 SSW 1017,7 35
17.10.2017 04:00:00 - - - - - - -
17.10.2017 03:00:00 - - - - - - -
17.10.2017 02:00:00 15,8 14,8 8 4 S 1021,7 20
17.10.2017 01:00:00 - - - - - - -
17.10.2017 00:00:00 - - - - - - -
16.10.2017 23:00:00 17,0 16,0 8 4 NNW 1023,3 20
16.10.2017 22:00:00 - - - - - - -
16.10.2017 21:00:00 - - - - - - -
16.10.2017 20:00:00 17,2 16,2 9 5 W 1023,3 8
16.10.2017 19:00:00 - - - - - - -
16.10.2017 18:00:00 - - - - - - -
16.10.2017 17:00:00 19,6 17,0 15 8 WNW 1022,8 8
16.10.2017 16:00:00 - - - - - - -
16.10.2017 15:00:00 - - - - - - -
16.10.2017 14:00:00 25,4 13,3 35 19 SSW 1020,3 35

tt = Température de l'air
td = dewpoint
ff = Vitesse du vent
dd = Direction du vent
ppp = reduced air pressure
vv = visibility

stations d'obs. à proximité